Find Starlink 33657

NORAD ID: 63370 Int'l Des: 2025-063 Owner: SPXS Country: US Constellation: starlink operational
LEOCIRCULAR

Live-Position

3D-Globus wird geladen...

Über Starlink 33657

Beschreibung wird geladen...

Nächste Überflüge

Passes for default location (London). Set your location on the main map for personalized predictions.

Höhenverlauf

Loading altitude history...

Zweizeiliger Elementsatz

1 63370U 25063H 26124.10901413 .00033367 00000-0 77090-3 0 9997
2 63370 53.1585 154.3875 0001569 92.0692 268.0494 15.42236406 63207
Epoch: 4. Mai 2026 • Age: 9 hours

Aktueller Status

Höhe 446.3 km
Geschwindigkeit 7.64 km/s
Subsatellitenpunkt -22.22°S, 95.07°E
Startdatum 26. März 2025
Alter 1.1 years
Typ internet

Technische Details

Klassifizierung Payload
Masse 575.00 kg
Trockenmasse 530.00 kg
Gesamtmasse 575.00 kg
Länge 0.30 m
Durchmesser 4.10 m
Spannweite 29.00 m
Form Box + pan
Hersteller SPXS
Bus-Typ Starlink V2MO
Phasenstatus In Orbit
Besitzer/Staat SPXS/US

Most Searched